Bellingham, WA
on Tuesday, November 20, 2012

Tuesday
Previous Day Next Day
Daily Summary
 ActualAverageRecord
Temperature
Mean Temperature °F 42°F  
Max Temperature 54°F 49°F 62°F (2002)
Min Temperature 43°F 36°F 20°F (1977)
Degree Days
Heating Degree Days 16 23  
Month to date heating degree days 413  
Cooling Degree Days 0 0  
Month to date cooling degree days 0  
Year to date cooling degree days 42  
Moisture
Dew Point 42°F   
Average Humidity 80    
Maximum Humidity 93    
Minimum Humidity 64    
Precipitation
Precipitation 0.00 in 0.19 in 0.92 in (1998)
Month to date precipitation 3.94  
Year to date precipitation 29.75  
Wind
Wind Speed 7 mph   
Max Wind Speed 24 mph   
Max Gust Speed 36 mph   
Visibility 10 miles   
Events Rain   

Key: T is trace of precipitation, MM is missing value
Source: NWS Daily Summary
Time(PST)TemperatureDew PointHumidity Pressure Visibility Wind DirectionWind SpeedGust SpeedPrecipitationEvents Conditions
12:15 AM 48.2°F 44.6°F 87% 29.65 in 10.0 miles ESE 4.6 mph - N/A   Overcast
12:53 AM 48.0°F 44.1°F 86% 29.68 in 10.0 miles Calm Calm - 0.00 in   Mostly Cloudy
1:06 AM 46.4°F 44.6°F 93% 29.65 in 10.0 miles Calm Calm - N/A   Mostly Cloudy
1:33 AM 46.4°F 44.6°F 93% 29.65 in 10.0 miles Variable 3.5 mph - N/A   Overcast
1:41 AM 48.2°F 44.6°F 87% 29.65 in 10.0 miles Calm Calm - N/A   Overcast
1:53 AM 46.9°F 44.1°F 90% 29.68 in 10.0 miles Calm Calm - N/A   Overcast
2:53 AM 51.1°F 43.0°F 74% 29.69 in 10.0 miles Variable 6.9 mph - N/A   Overcast
3:53 AM 51.1°F 43.0°F 74% 29.67 in 10.0 miles Variable 4.6 mph - N/A   Overcast
4:53 AM 46.0°F 43.0°F 89% 29.67 in 10.0 miles NNE 9.2 mph - N/A   Overcast
5:24 AM 46.4°F 42.8°F 87% 29.63 in 10.0 miles NNE 9.2 mph - N/A   Overcast
5:45 AM 44.6°F 42.8°F 93% 29.64 in 10.0 miles Calm Calm - N/A   Mostly Cloudy
5:53 AM 45.0°F 42.1°F 90% 29.67 in 10.0 miles North 4.6 mph - N/A   Mostly Cloudy
6:53 AM 43.0°F 41.0°F 93% 29.64 in 10.0 miles NNE 6.9 mph - N/A   Mostly Cloudy
7:53 AM 45.0°F 42.1°F 90% 29.61 in 10.0 miles NNE 4.6 mph - N/A   Overcast
8:53 AM 46.9°F 43.0°F 86% 29.59 in 10.0 miles NNE 8.1 mph - 0.00 in   Mostly Cloudy
9:53 AM 48.0°F 43.0°F 83% 29.55 in 10.0 miles ENE 4.6 mph - N/A   Partly Cloudy
10:53 AM 46.4°F 42.8°F 87% 29.49 in 10.0 miles NNE 8.1 mph - N/A   Partly Cloudy
11:53 AM 48.0°F 42.1°F 80% 29.50 in 10.0 miles NNE 5.8 mph - N/A   Overcast
12:53 PM 54.0°F 42.1°F 64% 29.50 in 10.0 miles SE 15.0 mph 21.9 mph N/A   Overcast
1:53 PM 50.0°F 43.0°F 77% 29.52 in 10.0 miles SE 19.6 mph 25.3 mph 0.00 in   Overcast
2:53 PM 53.1°F 43.0°F 69% 29.52 in 10.0 miles SSE 23.0 mph 35.7 mph 0.00 in   Partly Cloudy
3:53 PM 52.0°F 42.1°F 69% 29.57 in 10.0 miles SSE 24.2 mph 35.7 mph N/A   Partly Cloudy
4:53 PM 51.1°F 41.0°F 68% 29.60 in 10.0 miles SSE 23.0 mph 31.1 mph N/A   Mostly Cloudy
4:57 PM 51.8°F 41.0°F 67% 29.58 in 10.0 miles SSE 21.9 mph 32.2 mph N/A   Mostly Cloudy
5:05 PM 51.8°F 41.0°F 67% 29.58 in 10.0 miles SSE 17.3 mph 32.2 mph N/A   Overcast
5:50 PM 51.8°F 41.0°F 67% 29.58 in 10.0 miles SSE 18.4 mph 28.8 mph N/A   Overcast
5:53 PM 51.1°F 41.0°F 68% 29.60 in 10.0 miles SSE 15.0 mph 28.8 mph N/A   Overcast
6:53 PM 51.1°F 39.9°F 66% 29.60 in 10.0 miles SSE 23.0 mph 35.7 mph N/A   Overcast
7:38 PM 48.2°F 44.6°F 87% 29.61 in 10.0 miles South 11.5 mph 23.0 mph 0.00 in Rain Light Rain
7:50 PM 48.2°F 44.6°F 87% 29.61 in 10.0 miles South 10.4 mph - 0.00 in   Overcast
7:53 PM 48.0°F 44.1°F 86% 29.63 in 10.0 miles South 9.2 mph - 0.00 in   Overcast
8:53 PM 48.9°F 42.1°F 77% 29.64 in 10.0 miles South 10.4 mph 19.6 mph N/A   Overcast
9:07 PM 48.2°F 42.8°F 82% 29.62 in 10.0 miles South 6.9 mph - N/A   Overcast
9:53 PM 48.9°F 39.9°F 71% 29.64 in 10.0 miles South 9.2 mph 19.6 mph N/A   Overcast
10:53 PM 48.9°F 39.9°F 71% 29.63 in 10.0 miles SSE 11.5 mph 21.9 mph N/A   Overcast
11:24 PM 50.0°F 39.2°F 66% 29.60 in 10.0 miles SSE 15.0 mph 19.6 mph N/A   Overcast
11:53 PM 48.0°F 39.9°F 74% 29.61 in 10.0 miles ENE 4.6 mph - N/A   Overcast
Moon Phase
Nov. 20 Nov. 28 Dec. 06 Dec. 13 Dec. 20
Sunrise:07:27 AM (PST) Moon Rise:12:46 PM (PST)
Sunset:04:23 PM (PST) Moon Set:No Moon Set/

Copyright © 2014 The Weather Underground, Inc.